Dryden, TX

4:56 AM CDT on October 19, 2017 (GMT -0500)
Dryden

Weather History for K6R6 - January, 2014

Change the Weather History Date:

Thursday, January 23, 2014

  Actual Average (KFST) Record (KFST)
Temperature  
Mean Temperature 42 °F -  
Max Temperature 55 °F 61 °F 80 °F (2017)
Min Temperature 30 °F 36 °F 23 °F (2014)
Degree Days  
Heating Degree Days 22    
Moisture  
Dew Point 15 °F    
Average Humidity 33    
Maximum Humidity 43    
Minimum Humidity 18    
Precipitation  
Precipitation 0.00 in - - ()
Sea Level Pressure  
Sea Level Pressure 30.28 in    
Wind  
Wind Speed 15 mph (NNE)    
Max Wind Speed 22 mph    
Max Gust Speed 32 mph    
Averages and records for this station are not official NWS values.
T = Trace of Precipitation, MM = Missing Value Source: NWS Daily Summary

Daily Weather History Graph

Daily Weather History Graph

Search for Another Location

Airport or City:

Trip Planner

Search our weather history database for the weather conditions in past years. The results will help you decide how hot, cold, wet, or windy it might be!

Date:

Astronomy

Jan. 23, 2014 Rise Set
Actual Time 7:43 AM CST 6:18 PM CST
Civil Twilight 7:18 AM CST 6:43 PM CST
Nautical Twilight 6:48 AM CST 7:12 PM CST
Astronomical Twilight 6:20 AM CST 7:41 PM CST
Moon 12:20 AM CST (1/23) 11:53 AM CST (1/23)
Length of Visible Light 11h 25m
Length of Day
10h 34m
Waning Gibbous, 55% of the Moon is Illuminated
Jan 23
Waning Gibbous
Jan 23
Last Quarter
Jan 30
New
Feb 6
First Quarter
Feb 14
Full

Hourly Weather History & Observations

Time (CST) Temp. Windchill Dew Point Humidity Pressure Visibility Wind Dir Wind Speed Gust Speed Precip Events Conditions
12:53 AM 55.0 °F - 23.0 °F 29% 29.88 in - NNE 8.1 mph - N/A   Unknown
1:53 AM 54.0 °F - 24.1 °F 31% 29.89 in - North 9.2 mph - N/A   Unknown
2:53 AM 54.0 °F - 24.1 °F 31% 29.91 in - North 9.2 mph - N/A   Unknown
3:53 AM 54.0 °F - 25.0 °F 33% 29.93 in - North 12.7 mph - N/A   Unknown
4:53 AM 54.0 °F - 24.1 °F 31% 29.96 in - North 17.3 mph 23.0 mph N/A   Unknown
5:53 AM 50.0 °F - 21.9 °F 33% 30.02 in - North 20.7 mph 27.6 mph N/A   Unknown
6:53 AM 46.9 °F - 23.0 °F 39% 30.08 in - North 15.0 mph 25.3 mph N/A   Unknown
7:53 AM 45.0 °F 37.6 °F 23.0 °F 42% 30.13 in - North 17.3 mph 31.1 mph N/A   Unknown
8:53 AM 44.1 °F 35.4 °F 23.0 °F 43% 30.19 in - North 21.9 mph 27.6 mph N/A   Unknown
9:53 AM 44.1 °F 35.9 °F 21.0 °F 40% 30.24 in - North 19.6 mph 32.2 mph N/A   Unknown
10:53 AM 44.1 °F 35.4 °F 21.0 °F 40% 30.29 in - North 21.9 mph 29.9 mph N/A   Unknown
11:53 AM 44.1 °F 36.2 °F 21.0 °F 40% 30.32 in - North 18.4 mph 27.6 mph N/A   Unknown
12:53 PM 45.0 °F 37.4 °F 19.0 °F 36% 30.31 in - North 18.4 mph 28.8 mph N/A   Unknown
1:53 PM 45.0 °F 36.9 °F 18.0 °F 34% 30.32 in - North 20.7 mph 29.9 mph N/A   Unknown
2:53 PM 45.0 °F 37.1 °F 18.0 °F 34% 30.34 in - NNE 19.6 mph 27.6 mph N/A   Unknown
3:53 PM 43.0 °F 34.2 °F 16.0 °F 34% 30.38 in - NNE 20.7 mph 28.8 mph N/A   Unknown
4:53 PM 39.9 °F 31.4 °F 17.1 °F 40% 30.43 in - NNE 16.1 mph 26.5 mph N/A   Unknown
5:53 PM 37.9 °F 28.2 °F 14.0 °F 38% 30.48 in - NNE 18.4 mph - N/A   Unknown
6:53 PM 36.0 °F 26.7 °F 10.0 °F 34% 30.52 in - NNE 15.0 mph 24.2 mph N/A   Unknown
7:53 PM 34.0 °F 23.8 °F 3.9 °F 28% 30.57 in - NNE 16.1 mph 24.2 mph N/A   Unknown
8:53 PM 34.0 °F 23.8 °F -0.0 °F 24% 30.60 in - NNE 16.1 mph 21.9 mph N/A   Unknown
9:53 PM 32.0 °F 20.8 °F -5.1 °F 20% 30.63 in - NNE 17.3 mph - N/A   Unknown
10:53 PM 30.9 °F 19.8 °F -8.0 °F 18% 30.66 in - NNE 16.1 mph - N/A   Unknown
11:53 PM 30.9 °F 19.8 °F -9.0 °F 18% 30.66 in - North 16.1 mph - N/A   Unknown